Weather History for Mt. Clemens, MI

Change the Weather History Date:

Sunday, March 10, 2013

  Actual Average Record
Temperature  
Mean Temperature 48 °F -  
Max Temperature 60 °F 41 °F 65 °F (1973)
Min Temperature 35 °F 24 °F 6 °F (2003)
Degree Days  
Heating Degree Days 18    
Moisture  
Dew Point 37 °F    
Average Humidity 72    
Maximum Humidity 91    
Minimum Humidity 48    
Precipitation  
Precipitation 0.00 in - - ()
Sea Level Pressure  
Sea Level Pressure 29.95 in    
Wind  
Wind Speed 8 mph (South)    
Max Wind Speed 23 mph    
Max Gust Speed 29 mph    
Visibility 10 miles    
Events      
Averages and records for this station are not official NWS values.
T = Trace of Precipitation, MM = Missing Value Source: NWS Daily Summary

Daily Weather History Graph

Daily Weather History Graph

Search for Another Location

Airport:

Trip Planner

Search our weather history database for the weather conditions in past years. The results will help you decide how hot, cold, wet, or windy it might be!

Date:

Astronomy

Mar. 10, 2013 Rise Set
Actual Time 7:51 AM EDT 7:32 PM EDT
Civil Twilight 7:23 AM EDT 8:00 PM EDT
Nautical Twilight 6:50 AM EDT 8:33 PM EDT
Astronomical Twilight 6:17 AM EDT 9:06 PM EDT
Moon 6:51 AM EDT (3/10) 6:38 PM EDT (3/10)
Length of Visible Light 12h 36m
Length of Day
11h 40m
Waning Crescent, 2% of the Moon is Illuminated
Mar 10
Waning Crescent
Mar 11
New
Mar 19
First Quarter
Mar 27
Full
Apr 3
Last Quarter

Hourly Weather History & Observations

Time (EDT) Temp. Windchill Dew Point Humidity Pressure Visibility Wind Dir Wind Speed Gust Speed Precip Events Conditions
12:55 AM 35.8 °F 30.1 °F 33.4 °F 91% 30.07 in 10.0 mi SE 6.9 mph - N/A   Overcast
1:55 AM 36.7 °F 34.1 °F 33.4 °F 88% 30.06 in 10.0 mi SE 3.5 mph - N/A   Mostly Cloudy
3:55 AM 36.0 °F 33.3 °F 32.7 °F 88% 30.04 in 10.0 mi ESE 3.5 mph - N/A   Mostly Cloudy
4:55 AM 35.6 °F 31.7 °F 32.0 °F 87% 30.02 in 12.0 mi ESE 4.6 mph - N/A   Mostly Cloudy
5:55 AM 35.6 °F 29.9 °F 32.0 °F 87% 30.01 in 12.0 mi SE 6.9 mph - N/A   Mostly Cloudy
6:55 AM 35.6 °F 31.7 °F 32.0 °F 87% 30.00 in 12.0 mi SSE 4.6 mph - N/A   Scattered Clouds
7:55 AM 37.4 °F 32.8 °F 33.8 °F 87% 30.00 in 12.0 mi SSE 5.8 mph - N/A   Overcast
8:55 AM 39.2 °F 35.0 °F 33.8 °F 81% 30.00 in 10.0 mi South 5.8 mph - N/A   Mostly Cloudy
9:55 AM 46.4 °F 44.3 °F 35.6 °F 66% 30.01 in 10.0 mi SSW 4.6 mph - N/A   Mostly Cloudy
10:55 AM 51.8 °F - 37.4 °F 58% 29.97 in 10.0 mi South 11.5 mph - N/A   Mostly Cloudy
11:55 AM 57.2 °F - 39.2 °F 51% 29.95 in 10.0 mi South 12.7 mph - N/A   Mostly Cloudy
12:55 PM 59.0 °F - 39.2 °F 48% 29.95 in 10.0 mi SSW 16.1 mph - N/A   Mostly Cloudy
1:55 PM 57.2 °F - 39.2 °F 51% 29.94 in 10.0 mi SSW 23.0 mph 28.8 mph N/A   Overcast
2:55 PM 60.8 °F - 41.0 °F 48% 29.91 in 10.0 mi SSW 18.4 mph - N/A   Overcast
3:55 PM 60.8 °F - 42.8 °F 52% 29.92 in 7.0 mi SW 16.1 mph - N/A   Overcast
4:55 PM 59.0 °F - 42.8 °F 55% 29.92 in 7.0 mi South 13.8 mph - N/A   Overcast
5:55 PM 59.0 °F - 44.6 °F 59% 29.90 in 7.0 mi South 13.8 mph - N/A   Overcast
6:55 PM 53.6 °F - 42.8 °F 67% 29.91 in 10.0 mi South 11.5 mph - N/A   Overcast
7:55 PM 46.4 °F 41.9 °F 39.2 °F 76% 29.90 in 10.0 mi South 9.2 mph - N/A   Overcast
8:55 PM 46.4 °F 42.9 °F 39.2 °F 76% 29.89 in 10.0 mi SSW 6.9 mph - N/A   Overcast
9:55 PM 44.6 °F 42.2 °F 37.4 °F 76% 29.88 in 10.0 mi SSE 4.6 mph - N/A   Mostly Cloudy
10:55 PM 41.0 °F - 35.6 °F 81% 29.88 in 10.0 mi Calm Calm - N/A   Overcast
11:55 PM 40.8 °F 36.9 °F 37.0 °F 86% 29.83 in 10.0 mi ESE 5.8 mph - N/A   Overcast
12:55 AM 42.3 °F 39.4 °F 36.5 °F 80% 29.83 in 10.0 mi WSW 4.6 mph - N/A   Scattered Clouds